x

Portage Canal, Mi (pclm4) Weather Station

9:40pm - Fri 22nd Sep 2017 All times are CDT. -5 hours from GMT.

  • Wind
    6mph, 14mph gusts
  • Air Temp 72°f
  • Sea Pressure 1011.9mb
  • Portage Canal, Mi
  • Portage Canal, Mi

More Historic Weather Station data

Upgrade to MSW Pro to gain access to the past 30 days of data for over 8000 Wavebouys and Weather Stations around the globe.

Join

Comparision Forecast

View Surf forecast
   
Fri 09/22 9:40pm 6 14 mph 1011.9mb 72f
9:30pm 5 13 mph 1011.9mb 68f
9:20pm  -  5 mph 1012.2mb 64f
9:10pm  -  3 mph 1012.5mb 64f
9:00pm 2 3 mph 1012.5mb 64f
8:40pm  -  3 mph 1012.5mb 63f
8:30pm 1 3 mph 1012.5mb 64f
8:20pm  -  3 mph 1012.5mb 64f
8:10pm  -  2 mph 1012.9mb 64f
8:00pm  -  1 mph 1012.9mb 65f
7:40pm 1 2 mph 1012.9mb 65f
7:30pm 2 3 mph 1013.2mb 66f
7:20pm 2 5 mph 1013.2mb 67f
7:10pm 2 6 mph 1013.2mb 68f
7:00pm 5 7 mph 1013.2mb 68f
6:40pm 1 3 mph 1012.9mb 68f
6:30pm 2 3 mph 1012.9mb 68f
6:20pm  -  2 mph 1013.2mb 68f
6:10pm  -  3 mph 1013.2mb 68f
6:00pm 2 5 mph 1013.5mb 68f
5:40pm 1 3 mph 1013.5mb 69f
5:30pm 2 3 mph 1013.5mb 70f
5:20pm 3 6 mph 1013.5mb 69f
5:10pm 2 7 mph 1013.5mb 70f
5:00pm 3 6 mph 1013.5mb 69f
4:40pm  -  7 mph 1013.5mb 66f
4:30pm 5 8 mph 1013.5mb 67f
4:20pm 3 22 mph 1013.9mb 66f
4:10pm 2 3 mph 1014.2mb 66f
4:00pm 3 6 mph 1014.2mb 67f
3:01pm 3 23 mph 1012.9mb 73f
2:40pm 10 21 mph 1011.2mb 72f
2:30pm 8 16 mph 1010.2mb 71f
2:20pm 7 16 mph 1010.2mb 71f
2:10pm 7 23 mph 1010.5mb 71f
2:00pm 6 24 mph 1010.8mb 70f
1:40pm 11 23 mph 1011.5mb 68f
1:30pm 10 21 mph 1010.5mb 68f
1:20pm 9 24 mph 1011.5mb 68f
1:10pm 13 21 mph 1011.9mb 67f
1:00pm 7 20 mph 1012.5mb 67f
12:40pm 8 14 mph 1013.9mb 67f
12:30pm 6 13 mph 1014.2mb 67f
12:20pm 8 13 mph 1014.2mb 68f
12:10pm 5 8 mph 1013.9mb 67f
12:00pm 2 5 mph 1012.9mb 67f
11:40am 2 7 mph 1014.6mb 66f
11:30am 3 6 mph 1014.6mb 65f
11:20am 3 6 mph 1014.9mb 65f
11:10am 5 7 mph 1015.2mb 65f
11:00am 5 7 mph 1015.2mb 64f
10:40am 6 8 mph 1016.6mb 64f
10:30am 2 14 mph 1016.3mb 64f
10:20am 6 25 mph 1017.3mb 65f
10:10am 9 17 mph 1015.6mb 67f
10:00am 2 9 mph 1013.5mb 67f
9:40am 5 6 mph 1013.5mb 70f
9:30am 5 6 mph 1013.2mb 72f
9:20am  -  5 mph 1013.5mb 76f
9:10am 3 7 mph 1013.5mb 77f
9:00am 5 14 mph 1013.5mb 77f
8:40am 6 11 mph 1013.2mb 76f
8:30am 6 13 mph 1013.2mb 76f
8:20am 6 14 mph 1012.9mb 75f
8:10am 6 11 mph 1012.5mb 76f
8:00am 6 17 mph 1012.5mb 76f
7:40am 6 13 mph 1012.5mb 74f
7:30am 6 14 mph 1012.9mb 74f
7:20am 6 15 mph 1012.9mb 73f
7:10am 6 13 mph 1012.5mb 73f
7:00am 7 17 mph 1012.5mb 72f
6:40am 6 15 mph 1012.9mb 72f
6:30am 7 14 mph 1012.9mb 72f
6:20am 7 15 mph 1012.9mb 72f
6:10am 7 15 mph 1012.9mb 72f
6:00am 5 15 mph 1012.9mb 72f
5:40am 3 15 mph 1013.2mb 71f
5:30am 5 15 mph 1013.2mb 71f
5:20am 6 13 mph 1013.2mb 70f
5:10am 6 13 mph 1013.5mb 70f
5:00am 6 14 mph 1013.5mb 70f
4:40am 7 15 mph 1013.2mb 69f
4:30am 8 13 mph 1013.2mb 69f
4:20am 7 15 mph 1013.2mb 68f
4:10am 3 14 mph 1013.5mb 69f
4:00am 7 15 mph 1013.5mb 70f
3:40am 7 14 mph 1013.2mb 68f
3:30am 5 11 mph 1013.2mb 67f
3:20am 2 8 mph 1013.5mb 67f
3:10am 3 11 mph 1014.2mb 67f
3:00am 5 9 mph 1014.2mb 67f
2:40am 7 15 mph 1013.2mb 68f
2:30am 7 15 mph 1013.2mb 68f
2:20am 5 11 mph 1013.2mb 68f
2:10am 3 15 mph 1013.5mb 68f
2:00am 6 13 mph 1013.5mb 68f
1:40am 7 15 mph 1013.5mb 67f
1:30am 6 15 mph 1013.5mb 66f
1:20am 8 18 mph 1013.9mb 66f
1:10am 6 17 mph 1013.9mb 66f
1:00am 6 16 mph 1013.9mb 65f
12:40am 7 15 mph 1014.2mb 65f
12:30am 5 15 mph 1014.2mb 66f
12:20am 6 13 mph 1014.2mb 66f
12:10am 7 14 mph 1014.6mb 66f
12:00am 7 15 mph 1014.6mb 65f
Thu 09/21 11:40pm 1 6 mph 1014.9mb 65f
11:30pm 2 10 mph 1014.9mb 65f
11:20pm 2 8 mph 1014.9mb 65f
11:10pm 2 6 mph 1014.9mb 64f
11:00pm 2 5 mph 1015.2mb 64f
10:40pm 1 7 mph 1015.2mb 64f
10:30pm 2 7 mph 1015.2mb 64f
10:20pm 2 13 mph 1015.2mb 64f
10:10pm 5 11 mph 1015.2mb 64f
10:00pm 2 15 mph 1015.2mb 64f
9:50pm 2 13 mph 1015.2mb 64f
9:40pm 3 11 mph 1015.6mb 64f
9:30pm 3 15 mph 1015.6mb 63f
9:20pm 5 13 mph 1015.6mb 63f
9:10pm 3 10 mph 1015.6mb 63f
9:00pm 6 14 mph 1015.6mb 63f
8:50pm 5 13 mph 1015.6mb 62f
8:40pm 6 10 mph 1015.6mb 62f
8:30pm 5 9 mph 1015.6mb 61f
8:20pm 5 10 mph 1015.6mb 61f
8:10pm 2 7 mph 1015.6mb 61f
8:00pm 5 8 mph 1015.6mb 61f
7:50pm 2 8 mph 1015.6mb 61f
7:40pm 3 11 mph 1015.6mb 61f
7:30pm 5 9 mph 1015.6mb 61f
7:20pm 2 11 mph 1015.6mb 61f
7:10pm 5 13 mph 1015.6mb 61f
7:00pm 8 15 mph 1015.2mb 62f
6:50pm 7 17 mph 1015.2mb 62f
6:40pm 7 14 mph 1015.2mb 63f
6:30pm 7 17 mph 1015.2mb 63f
6:20pm 8 15 mph 1015.2mb 64f
6:10pm 6 18 mph 1015.6mb 64f
6:00pm 8 16 mph 1015.6mb 64f
5:50pm 3 13 mph 1015.6mb 65f
5:40pm 2 8 mph 1015.9mb 67f
5:30pm 1 10 mph 1015.9mb 67f
5:20pm 6 13 mph 1015.9mb 68f
5:10pm 8 15 mph 1015.9mb 68f
5:00pm 2 15 mph 1016.3mb 69f
4:50pm 5 10 mph 1015.9mb 69f
4:40pm 3 13 mph 1016.3mb 69f
4:30pm 7 11 mph 1016.3mb 70f
4:20pm 6 13 mph 1016.3mb 70f
4:10pm 8 13 mph 1016.3mb 71f
4:00pm 5 11 mph 1016.3mb 72f
3:50pm 5 9 mph 1016.3mb 73f
3:40pm 2 10 mph 1016.3mb 74f
3:30pm 6 11 mph 1016.3mb 73f
3:20pm 6 10 mph 1016.3mb 73f
3:10pm 5 8 mph 1016.3mb 73f
3:00pm 7 10 mph 1016.6mb 73f
2:50pm 5 10 mph 1016.6mb 73f
2:40pm 5 10 mph 1016.9mb 74f
2:30pm 3 6 mph 1016.9mb 72f
2:20pm 5 9 mph 1016.9mb 71f
2:10pm 1 9 mph 1016.9mb 71f
2:00pm 3 9 mph 1017.3mb 70f
1:50pm 6 8 mph 1017.3mb 69f
1:40pm 6 9 mph 1017.6mb 71f
1:30pm 3 8 mph 1017.6mb 69f
1:20pm 3 8 mph 1017.6mb 69f
1:10pm 5 10 mph 1017.9mb 68f
1:00pm 3 6 mph 1017.9mb 67f
12:50pm 5 7 mph 1017.9mb 67f
12:40pm 2 7 mph 1018.3mb 67f
12:30pm 3 9 mph 1018.3mb 67f
12:20pm 6 8 mph 1018.3mb 67f
12:10pm 6 8 mph 1018.6mb 69f
12:00pm 2 7 mph 1018.3mb 65f
11:50am 3 8 mph 1018.6mb 65f
11:40am 6 9 mph 1018.6mb 67f
11:30am 5 9 mph 1018.3mb 69f
11:20am 6 9 mph 1018.6mb 69f
11:10am 5 9 mph 1018.6mb 69f
11:00am 6 10 mph 1018.3mb 69f
10:50am 6 13 mph 1018.6mb 68f
10:40am 5 11 mph 1018.6mb 68f
10:30am 6 9 mph 1018.3mb 68f
10:20am 6 13 mph 1018.3mb 68f
10:10am 6 9 mph 1018.3mb 67f
10:00am 5 11 mph 1018.6mb 66f
9:50am 5 8 mph 1018.3mb 66f
9:40am 2 9 mph 1018.3mb 64f
9:30am 1 2 mph 1018.6mb 62f
9:20am 1 2 mph 1019mb 62f
9:10am 1 2 mph 1019mb 61f
9:00am 1 2 mph 1019mb 61f
8:50am  -  2 mph 1018.6mb 60f
8:40am  -  1 mph 1018.6mb 60f
8:30am  -  0 mph 1019mb 60f
8:20am  -  1 mph 1018.6mb 59f
8:10am  -  1 mph 1018.6mb 57f
8:00am  -  0 mph 1018.6mb 55f
7:50am  -  1 mph 1018.6mb 54f
7:40am  -  1 mph 1018.6mb 53f
7:30am  -  1 mph 1018.6mb 52f
7:20am  -  2 mph 1018.6mb 52f
7:10am  -  1 mph 1018.6mb 52f
7:00am  -  1 mph 1018.6mb 52f
6:50am  -  2 mph 1018.6mb 53f
6:40am 1 2 mph 1018.3mb 53f
6:30am 1 2 mph 1018.3mb 54f
6:20am 1 2 mph 1018.6mb 53f
6:10am  -  1 mph 1018.3mb 53f
6:00am  -  1 mph 1018.3mb 53f
5:50am 1 2 mph 1018.3mb 52f
5:40am 2 2 mph 1018.3mb 52f
5:30am 1 2 mph 1017.9mb 53f
5:20am 2 2 mph 1017.9mb 54f
5:10am  -  1 mph 1017.9mb 55f
5:00am  -  2 mph 1017.6mb 55f
4:50am 1 2 mph 1017.6mb 55f
4:40am  -  3 mph 1017.3mb 55f
4:30am 2 3 mph 1017.3mb 54f
4:20am 3 5 mph 1016.9mb 54f
4:10am 2 3 mph 1016.9mb 54f
4:00am 2 3 mph 1016.6mb 54f
3:50am 3 3 mph 1016.6mb 54f
3:40am 2 2 mph 1016.6mb 54f
2:40am 2 3 mph 1015.9mb 54f
2:30am 1 2 mph 1015.9mb 55f
2:20am 1 2 mph 1015.9mb 55f
2:10am 1 2 mph 1015.9mb 55f
2:00am  -  2 mph 1015.9mb 55f
1:50am  -  2 mph 1015.9mb 55f
1:40am 1 2 mph 1016.3mb 55f
1:30am  -  2 mph 1016.3mb 56f
1:20am  -  3 mph 1016.3mb 56f
1:10am 2 3 mph 1016.3mb 56f
1:00am  -  5 mph 1016.3mb 57f
12:50am 2 3 mph 1015.9mb 57f
12:40am 2 5 mph 1015.9mb 57f
12:30am 2 5 mph 1015.9mb 57f
12:20am 2 5 mph 1015.6mb 57f
12:10am 3 5 mph 1015.6mb 57f
12:00am 2 3 mph 1015.2mb 57f
Wed 09/20 11:50pm 2 3 mph 1015.2mb 58f
11:40pm 2 2 mph 1014.9mb 58f
11:30pm  -  2 mph 1014.6mb 58f
11:20pm  -  3 mph 1013.9mb 59f
11:10pm  -  3 mph 1013.9mb 60f
11:00pm 1 5 mph 1013.9mb 61f
10:50pm 2 5 mph 1013.9mb 62f
10:40pm 2 7 mph 1013.5mb 62f
10:30pm 1 8 mph 1013.2mb 62f
10:20pm 2 22 mph 1013.2mb 62f
10:10pm 1 5 mph 1012.5mb 61f
10:00pm 2 5 mph 1012.5mb 62f
9:50pm 2 10 mph 1012.9mb 63f
9:40pm 6 10 mph 1012.5mb 64f
9:30pm 2 8 mph 1012.2mb 64f
9:20pm 5 8 mph 1012.5mb 65f
9:10pm 5 7 mph 1012.5mb 64f
9:00pm 3 7 mph 1012.2mb 64f
8:50pm 3 8 mph 1011.9mb 64f
8:40pm 3 8 mph 1011.9mb 65f
8:30pm 5 9 mph 1011.9mb 65f
8:20pm  -  10 mph 1011.5mb 66f
8:10pm 5 9 mph 1011.5mb 66f
8:00pm 3 8 mph 1011.5mb 67f
7:50pm 5 9 mph 1011.2mb 67f
7:40pm 5 10 mph 1010.8mb 67f
7:30pm 6 11 mph 1010.8mb 67f
7:20pm 3 6 mph 1010.8mb 68f
7:10pm 3 6 mph 1010.8mb 68f
7:00pm 3 7 mph 1010.5mb 68f
6:50pm 5 8 mph 1010.5mb 69f
6:40pm 3 11 mph 1010.5mb 69f
6:30pm 7 11 mph 1010.5mb 69f
6:20pm 3 10 mph 1010.2mb 70f
6:10pm 3 8 mph 1009.8mb 70f
6:00pm 5 13 mph 1009.8mb 70f
5:50pm 3 10 mph 1009.8mb 69f
5:40pm 5 11 mph 1009.8mb 70f
5:30pm 3 11 mph 1009.8mb 70f
5:20pm 3 7 mph 1009.8mb 70f
5:10pm 3 8 mph 1009.5mb 70f
5:00pm 3 7 mph 1009.5mb 70f
4:50pm 2 9 mph 1009.1mb 70f
4:40pm 3 9 mph 1009.1mb 70f
4:30pm 6 11 mph 1009.1mb 71f
4:20pm 5 11 mph 1009.1mb 71f
4:10pm 3 9 mph 1009.1mb 71f
4:00pm 6 11 mph 1008.8mb 71f
3:50pm 5 13 mph 1008.8mb 72f
3:40pm 6 11 mph 1008.8mb 72f
3:30pm 6 11 mph 1008.5mb 72f
3:20pm 8 14 mph 1008.5mb 72f
3:10pm 6 15 mph 1008.5mb 73f
3:00pm 8 15 mph 1008.5mb 74f
2:50pm 9 22 mph 1008.1mb 73f
2:40pm 7 17 mph 1007.8mb 73f
2:30pm 8 17 mph 1007.5mb 74f
2:20pm 7 16 mph 1007.5mb 73f
2:10pm 6 14 mph 1007.8mb 72f
2:00pm 7 13 mph 1008.1mb 72f
1:50pm 5 11 mph 1008.1mb 72f
1:40pm 8 16 mph 1008.1mb 72f
1:30pm 5 14 mph 1008.1mb 72f
1:20pm 7 14 mph 1008.1mb 72f
1:10pm 3 9 mph 1008.1mb 72f
1:00pm 3 8 mph 1008.1mb 73f
12:50pm 6 10 mph 1007.8mb 73f
12:40pm 7 13 mph 1007.8mb 73f
12:30pm 3 10 mph 1007.8mb 72f
12:20pm 2 9 mph 1007.8mb 72f
12:10pm 2 6 mph 1007.8mb 71f
12:00pm 3 8 mph 1007.8mb 70f
11:50am 6 10 mph 1007.8mb 71f
11:40am 3 9 mph 1007.5mb 71f
11:30am 3 9 mph 1008.1mb 71f
11:20am 6 11 mph 1007.1mb 68f
11:10am 6 15 mph 1007.1mb 67f
11:01am 9 21 mph 1006.4mb 66f
11:00am 9 20 mph 1006.4mb 66f
10:50am 9 20 mph 1006.4mb 65f
10:40am 6 21 mph 1006.8mb 65f
10:30am 3 18 mph 1007.5mb 64f
10:20am 6 15 mph 1007.5mb 64f
10:10am 5 11 mph 1008.1mb 64f
10:01am 1 23 mph 1008.1mb 63f
10:00am 1 9 mph 1008.5mb 63f
9:50am 3 8 mph 1008.8mb 62f
9:40am 2 22 mph 1009.5mb 62f
9:30am 8 18 mph 1009.5mb 62f
9:20am 8 23 mph 1006.8mb 61f
9:10am 8 13 mph 1007.8mb 61f
9:00am 6 11 mph 1009.8mb 61f
8:50am 7 10 mph 1010.5mb 61f
8:40am 5 8 mph 1011.2mb 61f
8:30am 3 6 mph 1011.2mb 62f
8:20am 3 5 mph 1011.9mb 62f
8:10am  -  5 mph 1012.5mb 61f
8:00am  -  16 mph 1012.2mb 62f
7:50am 2 3 mph 1011.9mb 62f
7:40am 2 13 mph 1011.9mb 62f
7:30am 5 13 mph 1012.5mb 63f
7:20am 7 15 mph 1011.9mb 62f
7:10am 3 16 mph 1011.2mb 63f
7:00am 7 18 mph 1009.8mb 63f
6:50am 6 20 mph 1009.5mb 63f
6:40am 7 20 mph 1009.5mb 62f
6:30am 7 20 mph 1009.1mb 62f
6:20am 6 18 mph 1009.1mb 62f
6:10am 8 17 mph 1009.1mb 62f
6:00am 5 16 mph 1009.5mb 62f
5:50am 5 13 mph 1009.8mb 62f
5:40am 5 16 mph 1009.8mb 62f
5:30am 6 14 mph 1009.8mb 62f
5:20am 3 10 mph 1009.8mb 62f
5:10am 2 8 mph 1010.2mb 61f
5:00am 5 10 mph 1009.8mb 61f
4:50am 2 7 mph 1010.5mb 61f
4:40am 2 13 mph 1010.5mb 61f
4:30am 3 13 mph 1010.2mb 61f
4:20am 7 14 mph 1010.2mb 61f
4:10am 6 14 mph 1010.5mb 61f
4:00am 6 15 mph 1010.5mb 62f
3:50am 6 11 mph 1010.5mb 62f
3:40am 7 13 mph 1011.2mb 62f
3:30am 7 16 mph 1010.8mb 62f
3:20am 8 23 mph 1010.8mb 62f
3:10am 6 13 mph 1011.2mb 62f
3:00am 6 11 mph 1011.5mb 62f
2:50am 7 13 mph 1011.5mb 62f
2:40am 5 13 mph 1011.2mb 62f
2:30am 5 14 mph 1011.5mb 62f
2:20am 6 11 mph 1011.5mb 61f
2:10am 6 13 mph 1011.5mb 61f
2:00am 5 13 mph 1011.5mb 60f
1:50am 6 14 mph 1011.9mb 60f
1:40am 5 11 mph 1012.2mb 61f
1:30am 5 10 mph 1012.2mb 60f
1:20am 2 11 mph 1012.2mb 61f
1:10am 2 9 mph 1012.2mb 61f
1:00am 5 10 mph 1012.5mb 61f
12:50am 3 13 mph 1012.2mb 61f
12:40am 5 10 mph 1012.2mb 61f
12:30am 5 13 mph 1012.2mb 62f
12:20am 7 14 mph 1012.2mb 62f
12:10am 5 10 mph 1012.5mb 62f
12:00am 7 17 mph 1012.5mb 62f
Tue 09/19 11:50pm 5 13 mph 1012.5mb 62f
11:40pm 6 14 mph 1012.2mb 63f
11:30pm 5 14 mph 1012.2mb 63f
11:20pm 8 15 mph 1012.2mb 63f
11:10pm 5 17 mph 1012.2mb 63f
11:00pm 6 17 mph 1012.2mb 63f
10:50pm 7 18 mph 1012.5mb 63f
10:40pm 6 15 mph 1012.5mb 64f
10:30pm 7 16 mph 1012.5mb 64f
10:20pm 7 17 mph 1012.5mb 64f
10:10pm 5 14 mph 1012.5mb 63f
10:00pm 7 16 mph 1012.9mb 63f
9:50pm 5 10 mph 1012.9mb 63f
9:40pm 1 8 mph 1013.2mb 62f
9:30pm 2 6 mph 1013.5mb 61f
9:20pm 3 6 mph 1013.5mb 61f
9:10pm 1 7 mph 1013.5mb 62f
9:00pm 3 13 mph 1013.9mb 62f
8:50pm 5 10 mph 1013.5mb 62f
8:40pm 3 10 mph 1013.5mb 62f
8:30pm 5 14 mph 1013.5mb 62f
8:20pm 5 14 mph 1013.5mb 62f
8:10pm 6 14 mph 1013.2mb 62f
8:00pm 7 16 mph 1013.5mb 62f
7:50pm 9 16 mph 1013.2mb 62f
7:40pm 3 14 mph 1013.5mb 62f
7:30pm 6 14 mph 1013.2mb 62f
7:20pm 7 20 mph 1013.2mb 62f
7:10pm 7 21 mph 1013.5mb 62f
7:00pm 9 17 mph 1013.2mb 63f
6:50pm 7 17 mph 1013.2mb 63f
6:40pm 7 17 mph 1013.5mb 64f
6:30pm 9 18 mph 1013.2mb 64f
6:20pm 8 20 mph 1013.5mb 65f
6:10pm 7 16 mph 1013.5mb 66f
6:00pm 8 20 mph 1013.5mb 66f
5:50pm 9 18 mph 1013.5mb 67f
5:40pm 8 18 mph 1013.5mb 67f
5:30pm 8 18 mph 1013.9mb 68f
5:20pm 6 18 mph 1013.9mb 68f
5:10pm 8 18 mph 1013.9mb 69f
5:00pm 7 13 mph 1013.9mb 69f
4:50pm 8 14 mph 1014.2mb 70f
4:40pm 3 16 mph 1014.2mb 70f
4:30pm 7 14 mph 1014.2mb 70f
4:20pm 8 17 mph 1014.2mb 70f
4:10pm 9 17 mph 1014.2mb 71f
4:00pm 8 15 mph 1014.6mb 71f
3:50pm 8 15 mph 1014.6mb 71f
3:40pm 7 16 mph 1014.6mb 71f
3:30pm 8 15 mph 1014.6mb 71f
3:20pm 6 14 mph 1014.6mb 73f
3:10pm 3 11 mph 1014.9mb 71f
3:00pm 6 11 mph 1014.9mb 71f
2:50pm 7 14 mph 1014.9mb 71f
2:40pm 5 11 mph 1015.2mb 71f
2:30pm 3 9 mph 1015.2mb 71f
2:20pm 3 11 mph 1015.2mb 71f
2:10pm 5 11 mph 1015.6mb 71f
2:00pm 7 11 mph 1015.6mb 71f
1:50pm 3 13 mph 1015.2mb 71f
1:40pm 6 11 mph 1015.6mb 70f
1:30pm 5 11 mph 1015.6mb 71f
1:20pm 2 8 mph 1015.9mb 71f
1:10pm 5 13 mph 1015.9mb 70f
1:00pm 5 10 mph 1015.9mb 71f
12:50pm 3 10 mph 1015.9mb 70f
12:40pm 3 9 mph 1016.3mb 71f
12:30pm 2 9 mph 1016.3mb 69f
12:20pm 5 11 mph 1016.3mb 69f
12:10pm 5 11 mph 1016.3mb 69f
12:00pm 7 13 mph 1016.3mb 68f
11:50am 3 14 mph 1016.6mb 67f
11:40am 5 13 mph 1016.6mb 68f
11:30am 5 10 mph 1016.9mb 67f
11:20am 3 11 mph 1016.6mb 67f
11:10am 5 13 mph 1016.9mb 66f
11:00am 7 14 mph 1016.6mb 66f
10:50am 6 15 mph 1016.9mb 67f
10:40am 7 14 mph 1016.9mb 67f
10:30am 5 13 mph 1016.9mb 66f
10:20am 5 11 mph 1017.3mb 65f
10:10am 7 14 mph 1017.3mb 65f
10:00am 7 15 mph 1017.3mb 64f
9:50am 6 14 mph 1017.3mb 64f
9:40am 7 15 mph 1017.3mb 64f
9:30am 6 13 mph 1017.3mb 63f
9:20am 7 13 mph 1017.3mb 63f
9:10am 6 15 mph 1017.3mb 62f
9:00am 8 16 mph 1017.3mb 62f
8:50am 5 13 mph 1017.3mb 60f
8:40am 6 15 mph 1017.3mb 59f
8:30am 6 15 mph 1017.3mb 59f
8:20am 6 15 mph 1017.3mb 59f
8:10am 8 14 mph 1017.3mb 59f
8:00am 7 13 mph 1017.3mb 59f
7:50am 7 16 mph 1017.3mb 59f
7:40am 6 13 mph 1017.3mb 58f
7:30am 6 15 mph 1017.3mb 59f
7:20am 6 16 mph 1017.3mb 58f
7:10am 7 17 mph 1017.3mb 58f
7:00am 7 15 mph 1017.3mb 58f
6:50am 7 14 mph 1017.3mb 58f
6:40am 6 14 mph 1017.3mb 58f
6:30am 8 16 mph 1017.3mb 58f
6:20am 8 16 mph 1017.3mb 58f
6:10am 8 15 mph 1017.3mb 58f
6:00am 8 14 mph 1017.3mb 58f
5:50am 7 14 mph 1017.3mb 58f
5:40am 9 16 mph 1017.3mb 58f
5:30am 5 15 mph 1017.3mb 58f
5:20am 7 15 mph 1017.3mb 58f
5:10am 6 14 mph 1017.3mb 58f
5:00am 7 14 mph 1017.3mb 58f
4:50am 6 13 mph 1017.3mb 58f
4:40am 7 11 mph 1017.3mb 58f
4:30am 7 13 mph 1017.3mb 58f
4:20am 6 15 mph 1017.3mb 58f
4:10am 6 10 mph 1017.3mb 58f
4:00am 5 15 mph 1017.3mb 58f